This is the latest recevied weather packets stored in our database for station/object K7OWW-2. If no packets are shown the sender has not sent any weather packets the latest 10 day(s).
| Time | Temp. | Humidity | Pressure | Rain* | Wind** | Luminosity | Snow |
|---|---|---|---|---|---|---|---|
| 1787429353 | 25.56° C | 25% | 1013.8 hPa | 0 mm | - | - | - |
| 1787428753 | 25.56° C | 25% | 1014.1 hPa | 0 mm | - | - | - |
| 1787428153 | 25.56° C | 25% | 1014.1 hPa | 0 mm | - | - | - |
| 1787427855 | 25.56° C | 25% | 1014.2 hPa | 0 mm | - | - | - |
| 1787427553 | 25.56° C | 26% | 1014.2 hPa | 0 mm | - | - | - |
| 1787426953 | 25.56° C | 28% | 1014.1 hPa | 0 mm | - | - | - |
| 1787426353 | 25° C | 30% | 1014.1 hPa | 0 mm | - | - | - |
| 1787426055 | 25° C | 30% | 1014.3 hPa | 0 mm | - | - | - |
| 1787425753 | 25° C | 31% | 1014.3 hPa | 0 mm | - | - | - |
| 1787425153 | 24.44° C | 33% | 1014.2 hPa | 0 mm | - | - | - |
| 1787424553 | 24.44° C | 35% | 1014.4 hPa | 0 mm | - | - | - |
| 1787423953 | 23.33° C | 37% | 1014.3 hPa | 0 mm | - | - | - |
| 1787423353 | 23.33° C | 38% | 1014.5 hPa | 0 mm | - | - | - |
| 1787422753 | 23.33° C | 41% | 1014.5 hPa | 0 mm | - | - | - |
| 1787422153 | 22.78° C | 41% | 1014.6 hPa | 0 mm | - | - | - |
| 1787421554 | 22.22° C | 43% | 1014.7 hPa | 0 mm | - | - | - |
| 1787420955 | 22.78° C | 43% | 1014.9 hPa | 0 mm | - | - | - |
| 1787420656 | 22.78° C | 42% | 1014.8 hPa | 0 mm | - | - | - |
| 1787420353 | 22.78° C | 41% | 1014.9 hPa | 0 mm | - | - | - |
| 1787419754 | 21.67° C | 43% | 1015 hPa | 0 mm | - | - | - |
| 1787419153 | 21.67° C | 46% | 1015.1 hPa | 0 mm | - | - | - |
| 1787418856 | 21.67° C | 45% | 1015.3 hPa | 0 mm | - | - | - |
| 1787418554 | 21.67° C | 45% | 1015.3 hPa | 0 mm | - | - | - |
| 1787417953 | 21.67° C | 47% | 1015.2 hPa | 0 mm | - | - | - |
| 1787417354 | 20.56° C | 50% | 1015.3 hPa | 0 mm | - | - | - |
* Rain latest hour (hover to see other rain measurements)
** Current wind speed in m/s (hover to see current wind gust speed)